Newton, KS

4:56 AM CDT on May 21, 2018 (GMT -0500)
Newton City County

Weather History for KEWK - December, 2013

Change the Weather History Date:

Monday, December 2, 2013

  Actual Average Record
Temperature  
Mean Temperature 44 °F -  
Max Temperature 57 °F 45 °F 66 °F (2012)
Min Temperature 30 °F 28 °F 15 °F (2014)
Degree Days  
Heating Degree Days 22    
Moisture  
Dew Point 33 °F    
Average Humidity 71    
Maximum Humidity 87    
Minimum Humidity 44    
Precipitation  
Precipitation 0.00 in - - ()
Sea Level Pressure  
Sea Level Pressure 29.71 in    
Wind  
Wind Speed 7 mph (SSW)    
Max Wind Speed 12 mph    
Max Gust Speed -    
Visibility 8 miles    
Events      
Averages and records for this station are not official NWS values.
T = Trace of Precipitation, MM = Missing Value Source: NWS Daily Summary

Daily Weather History Graph

Daily Weather History Graph

Search for Another Location

Airport or City:

Astronomy

Dec. 02, 2013 Rise Set
Actual Time 7:27 AM CST 5:09 PM CST
Civil Twilight 6:58 AM CST 5:38 PM CST
Nautical Twilight 6:25 AM CST 6:11 PM CST
Astronomical Twilight 5:54 AM CST 6:43 PM CST
Moon 6:54 AM CST (12/2) 5:13 PM CST (12/2)
Length of Visible Light 10h 40m
Length of Day
9h 41m
Waning Crescent, 0% of the Moon is Illuminated
Dec 2
Waning Crescent
Dec 2
New
Dec 9
First Quarter
Dec 17
Full
Dec 25
Last Quarter

Hourly Weather History & Observations

Time (CST) Temp. Windchill Dew Point Humidity Pressure Visibility Wind Dir Wind Speed Gust Speed Precip Events Conditions
12:15 AM 39.2 °F 35.0 °F 30.2 °F 70% 29.87 in 10.0 mi WSW 5.8 mph - N/A   Clear
12:35 AM 39.2 °F 34.2 °F 30.2 °F 70% 29.87 in 10.0 mi WSW 6.9 mph - N/A   Clear
12:55 AM 39.2 °F 35.0 °F 30.2 °F 70% 29.86 in 10.0 mi WSW 5.8 mph - N/A   Clear
1:15 AM 37.4 °F 33.8 °F 30.2 °F 75% 29.84 in 10.0 mi SW 4.6 mph - N/A   Clear
1:35 AM 37.4 °F - 30.2 °F 75% 29.84 in 10.0 mi Calm Calm - N/A   Clear
1:55 AM 35.6 °F 31.7 °F 28.4 °F 75% 29.84 in 10.0 mi SSW 4.6 mph - N/A   Partly Cloudy
2:15 AM 33.8 °F 27.7 °F 28.4 °F 81% 29.84 in 10.0 mi South 6.9 mph - N/A   Clear
2:35 AM 33.8 °F 27.7 °F 28.4 °F 81% 29.84 in 10.0 mi SSW 6.9 mph - N/A   Clear
2:55 AM 33.8 °F 27.7 °F 28.4 °F 81% 29.83 in 9.0 mi South 6.9 mph - N/A   Clear
3:15 AM 35.6 °F 29.9 °F 30.2 °F 81% 29.82 in 8.0 mi South 6.9 mph - N/A   Clear
3:35 AM 35.6 °F 29.9 °F 30.2 °F 81% 29.82 in 7.0 mi South 6.9 mph - N/A   Clear
3:55 AM 35.6 °F 29.2 °F 30.2 °F 81% 29.81 in 8.0 mi SSW 8.1 mph - N/A   Clear
4:15 AM 35.6 °F 29.9 °F 30.2 °F 81% 29.80 in 8.0 mi South 6.9 mph - N/A   Clear
4:35 AM 35.6 °F 29.9 °F 30.2 °F 81% 29.79 in 7.0 mi South 6.9 mph - N/A   Clear
4:55 AM 33.8 °F 28.6 °F 28.4 °F 81% 29.79 in 6.0 mi South 5.8 mph - N/A   Clear
5:15 AM 33.8 °F 27.0 °F 28.4 °F 81% 29.78 in 7.0 mi SSW 8.1 mph - N/A   Clear
5:35 AM 33.8 °F 27.7 °F 30.2 °F 87% 29.77 in 6.0 mi South 6.9 mph - N/A   Clear
5:55 AM 33.8 °F 27.7 °F 28.4 °F 81% 29.77 in 5.0 mi South 6.9 mph - N/A   Clear
6:15 AM 33.8 °F 27.7 °F 28.4 °F 81% 29.76 in 4.0 mi South 6.9 mph - N/A   Clear
6:35 AM 33.8 °F 27.7 °F 28.4 °F 81% 29.76 in 5.0 mi South 6.9 mph - N/A   Clear
6:55 AM 32.0 °F 26.4 °F 28.4 °F 87% 29.76 in 4.0 mi South 5.8 mph - N/A   Clear
7:15 AM 32.0 °F 26.4 °F 26.6 °F 80% 29.76 in 4.0 mi South 5.8 mph - N/A   Clear
7:35 AM 30.2 °F 23.4 °F 26.6 °F 86% 29.77 in 2.5 mi South 6.9 mph - N/A   Clear
7:55 AM 30.2 °F 23.4 °F 26.6 °F 86% 29.76 in 1.8 mi South 6.9 mph - N/A   Clear
8:15 AM 30.2 °F 23.4 °F 26.6 °F 86% 29.76 in 3.0 mi SSW 6.9 mph - N/A   Clear
8:35 AM 33.8 °F 26.4 °F 30.2 °F 87% 29.76 in 4.0 mi SW 9.2 mph - N/A   Clear
8:55 AM 35.6 °F 28.6 °F 30.2 °F 81% 29.75 in 4.0 mi SSW 9.2 mph - N/A   Clear
9:15 AM 37.4 °F 30.8 °F 33.8 °F 87% 29.75 in 5.0 mi SW 9.2 mph - N/A   Clear
9:35 AM 37.4 °F 30.8 °F 33.8 °F 87% 29.75 in 6.0 mi SSW 9.2 mph - N/A   Clear
9:55 AM 39.2 °F 33.0 °F 33.8 °F 81% 29.75 in 7.0 mi SW 9.2 mph - N/A   Clear
10:15 AM 39.2 °F 33.0 °F 35.6 °F 87% 29.75 in 9.0 mi SSW 9.2 mph - N/A   Clear
10:35 AM 41.0 °F 35.2 °F 33.8 °F 76% 29.75 in 9.0 mi SSW 9.2 mph - N/A   Clear
10:55 AM 42.8 °F 38.6 °F 35.6 °F 76% 29.75 in 10.0 mi SSW 6.9 mph - N/A   Clear
11:15 AM 44.6 °F 40.2 °F 35.6 °F 71% 29.74 in 10.0 mi SW 8.1 mph - N/A   Clear
11:35 AM 46.4 °F 41.9 °F 35.6 °F 66% 29.73 in 10.0 mi SSW 9.2 mph - N/A   Clear
11:55 AM 48.2 °F - 35.6 °F 62% 29.72 in 10.0 mi SW 10.4 mph - N/A   Clear
12:15 PM 51.8 °F - 37.4 °F 58% 29.70 in 10.0 mi South 6.9 mph - N/A   Clear
12:35 PM 53.6 °F - 35.6 °F 51% 29.69 in 10.0 mi South 8.1 mph - N/A   Clear
12:55 PM 55.4 °F - 35.6 °F 47% 29.68 in 10.0 mi South 9.2 mph - N/A   Clear
1:15 PM 55.4 °F - 35.6 °F 47% 29.67 in 10.0 mi SSW 9.2 mph - N/A   Clear
1:35 PM 57.2 °F - 35.6 °F 44% 29.67 in 10.0 mi WSW 6.9 mph - N/A   Clear
1:55 PM 57.2 °F - 35.6 °F 44% 29.65 in 10.0 mi SW 9.2 mph - N/A   Clear
2:15 PM 57.2 °F - 35.6 °F 44% 29.65 in 10.0 mi SW 8.1 mph - N/A   Clear
2:35 PM 57.2 °F - 35.6 °F 44% 29.64 in 10.0 mi SW 9.2 mph - N/A   Clear
2:55 PM 57.2 °F - 35.6 °F 44% 29.64 in 10.0 mi SW 10.4 mph - N/A   Clear
3:15 PM 57.2 °F - 35.6 °F 44% 29.63 in 10.0 mi SW 10.4 mph - N/A   Clear
3:35 PM 57.2 °F - 35.6 °F 44% 29.63 in 10.0 mi SSW 11.5 mph - N/A   Clear
3:55 PM 55.4 °F - 35.6 °F 47% 29.63 in 10.0 mi SSW 9.2 mph - N/A   Clear
4:15 PM 55.4 °F - 35.6 °F 47% 29.63 in 10.0 mi South 9.2 mph - N/A   Clear
4:35 PM 53.6 °F - 35.6 °F 51% 29.63 in 10.0 mi SSW 9.2 mph - N/A   Clear
4:55 PM 50.0 °F - 35.6 °F 58% 29.63 in 10.0 mi SSW 11.5 mph - N/A   Clear
5:15 PM 50.0 °F - 35.6 °F 58% 29.63 in 10.0 mi South 11.5 mph - N/A   Clear
5:35 PM 48.2 °F - 35.6 °F 62% 29.65 in 10.0 mi SW 9.2 mph - N/A   Clear
5:55 PM 46.4 °F 41.1 °F 35.6 °F 66% 29.66 in 10.0 mi SW 11.5 mph - N/A   Clear
6:15 PM 46.4 °F 41.5 °F 35.6 °F 66% 29.65 in 10.0 mi SSW 10.4 mph - N/A   Clear
6:35 PM 44.6 °F 39.7 °F 35.6 °F 71% 29.65 in 10.0 mi SSW 9.2 mph - N/A   Clear
6:55 PM 42.8 °F 38.0 °F 33.8 °F 70% 29.64 in 10.0 mi SSW 8.1 mph - N/A   Clear
7:15 PM 42.8 °F 37.0 °F 35.6 °F 76% 29.65 in 10.0 mi South 10.4 mph - N/A   Clear
7:35 PM 42.8 °F 37.5 °F 35.6 °F 76% 29.64 in 8.0 mi South 9.2 mph - N/A   Clear
7:55 PM 42.8 °F 37.0 °F 35.6 °F 76% 29.63 in 7.0 mi South 10.4 mph - N/A   Clear
8:15 PM 42.8 °F 37.0 °F 35.6 °F 76% 29.63 in 7.0 mi South 10.4 mph - N/A   Clear
8:35 PM 41.0 °F 35.2 °F 33.8 °F 76% 29.63 in 5.0 mi South 9.2 mph - N/A   Clear
8:55 PM 42.8 °F 36.6 °F 35.6 °F 76% 29.62 in 6.0 mi SSW 11.5 mph - N/A   Clear
9:15 PM 42.8 °F 37.0 °F 35.6 °F 76% 29.63 in 6.0 mi SSW 10.4 mph - N/A   Clear
9:35 PM 42.8 °F 36.6 °F 35.6 °F 76% 29.64 in 6.0 mi SSW 11.5 mph - N/A   Clear
9:55 PM 42.8 °F 37.0 °F 35.6 °F 76% 29.63 in 6.0 mi SSW 10.4 mph - N/A   Clear
10:15 PM 41.0 °F 34.7 °F 33.8 °F 76% 29.63 in 5.0 mi South 10.4 mph - N/A   Clear
10:35 PM 41.0 °F 34.7 °F 35.6 °F 81% 29.62 in 6.0 mi South 10.4 mph - N/A   Clear
10:55 PM 41.0 °F 34.7 °F 35.6 °F 81% 29.62 in 7.0 mi SSW 10.4 mph - N/A   Clear
11:15 PM 42.8 °F 37.5 °F 35.6 °F 76% 29.61 in 7.0 mi SSW 9.2 mph - N/A   Clear
11:35 PM 39.2 °F 34.2 °F 33.8 °F 81% 29.61 in 7.0 mi SSW 6.9 mph - N/A   Clear
11:55 PM 39.2 °F 33.6 °F 33.8 °F 81% 29.61 in 6.0 mi SSW 8.1 mph - N/A   Clear